This demonstration page uses our WeatherBlox Daily Observations layout. Learn more.

Left ArrowRight Arrow

53.62937, 11.41316

Hourly Observations for April 30, 2016

Temp ( °F °C ) Dew Point ( °F °C ) Humidity (%) Winds ( mph kmh ) Pressure ( in mb ) Visibility ( mi km ) Precip ( " mm )
6:20 am 06:20 Mostly Sunny 39 4 34 1 81 81 E 6 9 30.03 1017 30 48 N/A
6:50 am 06:50 Mostly Sunny 41 5 36 2 81 81 E 7 11 30.03 1017 30 48 N/A
7:20 am 07:20 Mostly Sunny 45 7 36 2 71 71 ENE 3 6 30.03 1017 7 11 N/A
7:50 am 07:50 Mostly Sunny 46 8 36 2 66 66 E 3 6 30.03 1017 7 11 N/A
8:20 am 08:20 Mostly Sunny 48 9 36 2 62 62 ESE 8 13 30.03 1017 7 11 N/A
8:50 am 08:50 Mostly Sunny 50 10 37 3 62 62 ESE 6 9 30.06 1018 7 11 N/A
9:20 am 09:20 Mostly Sunny 52 11 37 3 58 58 SE 6 9 30.06 1018 7 11 N/A
9:50 am 09:50 Mostly Sunny 54 12 36 2 51 51 SE 7 11 30.06 1018 7 11 N/A
10:20 am 10:20 Mostly Sunny 54 12 39 4 58 58 S 5 7 30.06 1018 7 11 N/A
10:50 am 10:50 Mostly Sunny 55 13 37 3 51 51 SW 7 11 30.06 1018 7 11 N/A
11:20 am 11:20 Mostly Sunny 57 14 37 3 48 48 SSW 7 11 30.06 1018 7 11 N/A
11:50 am 11:50 Mostly Sunny 57 14 36 2 44 44 VRB 6 9 30.03 1017 7 11 N/A
12:20 pm 12:20 Mostly Sunny 59 15 36 2 42 42 SSE 9 15 30.03 1017 7 11 N/A
12:50 pm 12:50 Mostly Sunny 57 14 36 2 44 44 SSE 7 11 30.06 1018 7 11 N/A
1:20 pm 13:20 Mostly Sunny 57 14 34 1 41 41 SSE 7 11 30.06 1018 7 11 N/A
1:50 pm 13:50 Mostly Sunny 59 15 36 2 42 42 SE 7 11 30.06 1018 7 11 N/A
2:20 pm 14:20 Mostly Sunny 61 16 37 3 42 42 SSE 6 9 30.06 1018 7 11 N/A
2:50 pm 14:50 Mostly Sunny 61 16 37 3 42 42 SW 8 13 30.06 1018 7 11 N/A
3:20 pm 15:20 Mostly Sunny 59 15 37 3 45 45 SW 6 9 30.06 1018 7 11 N/A
3:50 pm 15:50 Mostly Sunny 59 15 36 2 42 42 VRB 1 2 30.06 1018 7 11 N/A
4:20 pm 16:20 Mostly Sunny 59 15 37 3 45 45 VRB 1 2 30.06 1018 7 11 N/A
4:50 pm 16:50 Mostly Sunny 59 15 36 2 42 42 W 5 7 30.06 1018 7 11 N/A
5:20 pm 17:20 Mostly Sunny 55 13 41 5 59 59 NW 12 19 30.06 1018 7 11 N/A
5:50 pm 17:50 Mostly Sunny 54 12 43 6 67 67 NNW 10 17 30.09 1019 7 11 N/A
6:20 pm 18:20 Mostly Sunny 54 12 43 6 67 67 NNW 10 17 30.09 1019 7 11 N/A
6:50 pm 18:50 Mostly Sunny 50 10 43 6 76 76 NNW 13 20 30.09 1019 7 11 N/A

Powered by AerisWeather